Location: Banff
(51.1667°N, 115.5667°W)
Time: 03:55:25
(UTC+00:00)

S-56A Canister/Altair - Pass Details

Date: 15 May 2021
Orbit: 632 x 2500 km, 38.9° (Epoch: 16 June)

Event Time Altitude Azimuth Distance (km) Brightness Sun altitude
Rises 04:20:38 0° 277° (W) 6,149 13.1 -7.6°
Reaches altitude 10° 04:25:32 10° 268° (W) 5,029 12.3 -8.2°
Maximum altitude 04:36:32 29° 217° (SW) 3,254 10.6 -9.4°
Drops below altitude 10° 04:45:16 10° 163° (SSE) 3,926 10.6 -10.3°
Enters shadow 04:45:41 - 161° (SSE) 4,008 10.6 -10.3°
